Regional Weather Roundup
Issued by NWS

Home | Current Version | Previous Version | Graphics & Text | Print | Product List | Glossary On
Versions: 1 2 3 4 5 6 7 8 9 10 11 12 13 14 15 16 17 18 19 20 21 22 23 24 25 26 27 28 29 30 31 32 33 34 35 36 37 38 39 40 41 42 43 44 45 46 47 48 49 50
000
ASUS43 KIND 200200
RWRIN

WEATHER ROUNDUP FOR INDIANA
NATIONAL WEATHER SERVICE INDIANAPOLIS IN
1000 PM EDT SAT AUG 19 2017

NOTE: "FAIR" INDICATES FEW OR NO CLOUDS BELOW 12,000 FEET WITH NO
SIGNIFICANT WEATHER AND/OR OBSTRUCTIONS TO VISIBILITY.

* - STATION DOES NOT REPORT WEATHER SUCH AS PRECIPITATION OR FOG.

+ - STATION NOT QUALITY CONTROLLED BY THE NATIONAL WEATHER SERVICE.
    USE DATA WITH CAUTION...ESPECIALLY DEWPOINT AND RELATIVE
    HUMIDITY OBSERVATIONS.

INZ001>003-010>013-019-020-200300-
NORTHWEST INDIANA

CITY           SKY/WX    TMP DP  RH WIND       PRES   REMARKS
GARY /AIRPORT/ CLEAR     64  59  82 VRB3      29.97S
MICHIGAN CITY+ CLEAR     63  63 100 CALM      29.99R
MONTICELLO +   CLEAR     69  63  80 CALM      29.97R

$$

LMZ046-743>745-200300-
SOUTHERN LAKE MICHIGAN

STATION/POSITION TIME  TEMP    WIND        PRES    WAVE
                       AIR SEA DIR/SP/G            HT
                 (UTC) (F)     (DEG/KT/KT) (MB)    (FT)
BURNS HARBOR     0140   75     110/  6/  7 1015.6R
MICHIGAN CITY    0100   72      70/  3/  4   N/A
5NW MICH CITY    0150   73 75  130/  6/  8   N/A     1

$$

INZ004-005-014>016-021>024-200300-
NORTH CENTRAL INDIANA

CITY           SKY/WX    TMP DP  RH WIND       PRES   REMARKS
GOSHEN         CLEAR     68  59  73 CALM      29.99R
PERU/GRISSOM   CLEAR     67  62  84 CALM      29.98R
SOUTH BEND     CLEAR     65  61  87 CALM      29.99R

$$

INZ006>009-017-018-025>027-200300-
NORTHEAST INDIANA

CITY           SKY/WX    TMP DP  RH WIND       PRES   REMARKS
FORT WAYNE     CLEAR     70  60  70 CALM      30.00R

$$

INZ028-029-035-036-043>045-051>053-200300-
WEST CENTRAL INDIANA

CITY           SKY/WX    TMP DP  RH WIND       PRES   REMARKS
LAFAYETTE      CLEAR     71  64  78 NE3       29.97R
TERRE HAUTE    MOCLDY    73  69  87 CALM      29.96R

$$

INZ030>032-037>040-046>048-054>057-064-065-200300-
CENTRAL INDIANA

CITY           SKY/WX    TMP DP  RH WIND       PRES   REMARKS
COLUMBUS       CLOUDY    77  63  61 S6        29.97R
INDIANAPOLIS   PTCLDY    78  63  59 NE12      29.96R
-EAGLE CREEK   CLEAR     77  62  59 MISG      29.97R
KOKOMO +       PTCLDY    68  64  87 NE3         N/A
MT COMFORT *+  CLEAR     68  64  88 NE3       29.99R
SHELBYVILLE    CLEAR     73  66  78 NE6       29.97R

$$

INZ033-034-041-042-049-050-058-059-200300-
EAST CENTRAL INDIANA

CITY           SKY/WX    TMP DP  RH WIND       PRES   REMARKS
MUNCIE         CLEAR     68  63  84 E3        29.99R
RICHMOND +     CLEAR     70  64  83 NE6       30.01R

$$

INZ060-061-067>069-081>083-085>088-200300-
SOUTHWEST INDIANA

CITY           SKY/WX    TMP DP  RH WIND       PRES   REMARKS
EVANSVILLE     CLEAR     76  69  79 CALM      29.95R
HUNTINGBURG +  CLEAR     74  70  87 CALM      29.96R

$$

INZ062-063-066-070>080-084-089>092-200300-
SOUTH CENTRAL AND SOUTHEAST INDIANA

CITY           SKY/WX    TMP DP  RH WIND       PRES   REMARKS
BLOOMINGTON    CLEAR     72  66  81 CALM      29.97R
MADISON *+     CLOUDY    72  68  88 CALM      30.00R
SEYMOUR +      CLOUDY    77  68  73 CALM      29.96R

$$





USA.gov is the U.S. government's official web portal to all federal, state and local government web resources and services.